Home > Weather > Santa Clarita > Past weeks

Flag for U.S.A. Weather for the Past 2 Weeks in Santa Clarita, California, U.S.A.

Now
82 °F

Sunny.


Feels Like: 80 °F
Forecast: 50 / 83 °F
Wind: 3 mph from South

Location: Van Nuys Airport

Current Time: Feb 12, 2016 at 2:30:31 PM

Latest Report: Feb 12, 2016 at 12:51 PM


Visibility: 10 mi

Pressure: 30.04 "Hg

Humidity: 18%

Dew point: 34 °F

Location of Santa ClaritaLocation

Historic Weather in Santa Clarita — Graph

°F

Santa Clarita Temperature Yesterday

Maximum temperature yesterday: 87 °F (at 2:51 PM)
Minimum temperature yesterday: 50 °F (at 6:51 AM)
Average temperature yesterday: 67 °F

High & Low Weather Summary for the Past Weeks

 TemperatureHumidityPressure
High87 °F (Feb 11, 2:51 PM)90% (Jan 30, 6:51 AM)30.35 "Hg (Jan 30, 6:51 AM)
Low39 °F (Feb 1, 6:51 AM)8% (Feb 7, 1:51 PM)29.56 "Hg (Jan 31, 1:51 PM)
Average62 °F35%30.11 "Hg
* Reported Jan 28 12:51 PM — Feb 12 12:51 PM, Santa Clarita, Weather by CustomWeather, © 2016

Note: Actual official high and low records may vary slightly from our data, if they occured in-between our weather recording intervals... More about our weather records

Advertising

Santa Clarita Weather History for the Previous 24 Hours

 ConditionsComfort  
Time TempWeatherWind HumidityBarometerVisibility
12:51 PM
Fri, Feb 12
82 °FSunny.3 mph18%30.04 "Hg10 mi
11:51 AM82 °FSunny.5 mph16%30.08 "Hg10 mi
10:51 AM78 °FSunny.No wind21%30.10 "Hg10 mi
9:51 AM70 °FSunny.No wind28%30.11 "Hg10 mi
8:51 AM63 °FSunny.No wind37%30.11 "Hg10 mi
7:51 AM56 °FSunny.No wind49%30.11 "Hg10 mi
6:51 AM50 °FSunny.No wind61%30.10 "Hg10 mi
5:51 AM50 °FClear.No wind61%30.09 "Hg10 mi
4:51 AM51 °FClear.No wind61%30.08 "Hg10 mi
3:51 AM53 °FClear.No wind55%30.08 "Hg10 mi
2:51 AM56 °FClear.3 mph49%30.09 "Hg10 mi
1:51 AM56 °FClear.No wind53%30.10 "Hg10 mi
12:51 AM57 °FClear.No wind51%30.10 "Hg10 mi
11:51 PM
Thu, Feb 11
58 °FClear.No wind47%30.11 "Hg10 mi
10:51 PM61 °FClear.No wind36%30.10 "Hg10 mi
9:51 PM63 °FClear.No wind34%30.10 "Hg10 mi
8:51 PM64 °FClear.3 mph33%30.10 "Hg10 mi
7:51 PM69 °FClear.No wind24%30.09 "Hg10 mi
6:51 PM72 °FClear.No wind22%30.09 "Hg10 mi
5:51 PM77 °FClear.5 mph20%30.07 "Hg10 mi
4:51 PM82 °FSunny.No wind16%30.05 "Hg10 mi
3:51 PM83 °FSunny.9 mph19%30.03 "Hg10 mi
2:51 PM87 °FSunny.No wind11%30.03 "Hg10 mi
Weather by CustomWeather, © 2016

See weather overviewHow to use our weather pages